Location: Cahas Mountain Overlook
(37.0833°N, 80.1000°W)
Time: 14:44:51
(UTC-05:00)

SR - All Passes

Search period start: 08 February 2026 00:00
Search period end: 18 February 2026 00:00
Orbit: 574 x 847 km, 66.7° (Epoch: 8 February)

Date Brightness Start Highest point End Pass type
(mag) Time Alt. Az. Time Alt. Az. Time Alt. Az.
8 Feb - 06:50:11 10° SSW 06:54:21 83° ESE 06:58:38 10° NNE visible
8 Feb - 15:30:09 10° N 15:34:45 35° ENE 15:39:39 10° ESE daylight
8 Feb - 17:11:59 10° NW 17:16:18 28° WSW 17:20:51 10° SSW daylight
9 Feb - 05:56:01 10° S 05:59:37 28° ESE 06:03:17 10° NE visible
9 Feb - 07:37:53 10° WSW 07:41:13 23° NW 07:44:40 10° N daylight
9 Feb - 14:36:13 10° N 14:39:29 17° NE 14:42:55 10° E daylight
9 Feb - 16:16:30 10° NW 16:21:31 66° WSW 16:26:55 10° SSE daylight
10 Feb - 05:04:41 10° ESE 05:05:05 10° ESE 05:05:29 10° E visible
10 Feb - 06:41:59 10° SW 06:46:06 57° WNW 06:50:20 10° NNE visible
10 Feb - 15:21:39 10° NNW 15:26:36 54° ENE 15:31:54 10° SE daylight
10 Feb - 17:04:30 10° WNW 17:07:55 18° WSW 17:11:28 10° SSW daylight
11 Feb - 05:47:12 10° S 05:51:14 49° ESE 05:55:22 10° NE visible
11 Feb - 07:30:45 10° W 07:33:11 15° NW 07:35:42 10° NNW daylight
11 Feb - 14:27:19 10° N 14:31:28 25° NE 14:35:50 10° ESE daylight
11 Feb - 16:08:26 10° NW 16:13:15 41° WSW 16:18:21 10° S daylight
12 Feb - 04:53:46 10° SSE 04:56:36 18° ESE 04:59:29 10° ENE visible
12 Feb - 06:34:05 10° WSW 06:37:54 34° WNW 06:41:52 10° N visible
12 Feb - 13:34:04 10° NNE 13:36:05 12° NE 13:38:08 10° ENE daylight
12 Feb - 15:13:17 10° NNW 15:18:23 84° ENE 15:23:51 10° SSE daylight
12 Feb - 16:58:11 10° W 16:59:29 11° WSW 17:00:48 10° WSW daylight
13 Feb - 05:38:44 10° SSW 05:42:55 87° ESE 05:47:13 10° NNE visible
13 Feb - 14:18:40 10° N 14:23:22 37° ENE 14:28:21 10° SE daylight
13 Feb - 16:00:36 10° NW 16:04:54 27° WSW 16:09:25 10° SSW daylight
14 Feb - 04:44:29 10° S 04:48:10 30° ESE 04:51:54 10° NE visible
14 Feb - 06:26:30 10° WSW 06:29:48 22° NW 06:33:12 10° N visible
14 Feb - 13:24:41 10° N 13:28:07 18° NE 13:31:42 10° E daylight
14 Feb - 15:05:04 10° NW 15:10:07 63° WSW 15:15:32 10° SSE daylight
15 Feb - 03:52:35 10° ESE 03:53:37 11° ESE 03:54:40 10° E visible
15 Feb - 05:30:33 10° SW 05:34:39 54° WNW 05:38:54 10° NNE visible
15 Feb - 14:10:11 10° NNW 14:15:11 57° ENE 14:20:34 10° SE daylight
15 Feb - 15:53:09 10° WNW 15:56:30 17° WSW 15:59:58 10° SSW daylight
16 Feb - 04:35:42 10° S 04:39:45 52° ESE 04:43:57 10° NE visible
16 Feb - 06:19:24 10° W 06:21:46 14° NW 06:24:10 10° NNW visible
16 Feb - 13:15:48 10° N 13:20:04 26° NE 13:24:34 10° ESE daylight
16 Feb - 14:57:00 10° NW 15:01:49 40° WSW 15:06:55 10° S daylight
17 Feb - 03:42:10 10° SSE 03:45:07 19° ESE 03:48:07 10° ENE visible
17 Feb - 05:22:39 10° WSW 05:26:26 33° NW 05:30:24 10° N visible
17 Feb - 12:22:23 10° NNE 12:24:41 13° NE 12:27:02 10° ENE daylight
17 Feb - 14:01:49 10° NNW 14:06:58 88° ENE 14:12:29 10° SSE daylight
17 Feb - 15:47:07 10° W 15:48:02 10° WSW 15:48:58 10° WSW daylight
